"startDT [UTC]","vpos","CH4 [ppm]","stdev(CH4) [ppm]","CO2 [ppm]","stdev(CO2) [ppm]","H2O_reported [%]","stdev(H2O_reported)","CavityPressure [torr]","CavityTemp [C]","OutletValve","CH4_dry [ppm]","CO2_dry [ppm]","DasTemp [C]","EtalonTemp [C]","WarmBoxTemp [C]","MPVPosition","T_ECpre [C]","T_EC1 [C]","T_EC2 [C]","p_inlet [hPa]","p_in [hPa]","p_out [hPa]","T_inlet [C]","RH_inlet [%]","dwpt_inlet [C]","T_vent [C]","RH_vent [%]","dwpt_vent [C]","flow_vent [l min-1]","flow_inlet [l min-1]","dwpt_sample [C]","T_room [C]"
2015-08-21 00:00:00,0.0,1.94154,0.00042,384.247,0.072,0.9909,0.0055,139.999,45.000,31049.92302,1.96106,388.976,34.608,45.068,45.000,0.00,0.10,-272.74,-272.80,-14,498,-931,24.6,24.5,3.0,24.3,25.4,3.2,5.73,1.80,3.4,28.5
2015-08-21 00:01:00,0.0,1.94146,0.00043,384.206,0.079,0.9964,0.0033,139.998,45.000,31050.57324,1.96114,388.958,34.618,45.068,45.001,0.00,0.10,-272.74,-272.80,-14,498,-931,24.6,24.6,3.0,24.3,25.7,3.4,5.73,1.84,3.4,28.5
2015-08-21 00:02:00,0.0,1.94051,0.00034,384.452,0.165,0.9911,0.0088,140.000,45.000,31051.17756,1.96007,389.180,34.627,45.068,45.000,0.00,0.10,-272.73,-272.79,-14,498,-931,24.6,24.5,3.0,24.3,25.6,3.3,5.73,1.97,3.4,28.5
2015-08-21 00:03:00,0.0,1.94078,0.00050,384.685,0.076,0.9767,0.0061,140.000,45.000,31052.46475,1.96003,389.348,34.635,45.068,45.000,0.00,0.10,-272.74,-272.80,-14,498,-931,24.6,24.1,2.8,24.3,25.3,3.1,5.73,2.05,3.4,28.5
2015-08-21 00:04:00,0.0,1.94085,0.00051,384.522,0.130,0.9844,0.0088,139.998,45.000,31053.38211,1.96023,389.225,34.627,45.068,45.000,0.00,0.10,-272.74,-272.80,-14,498,-931,24.6,24.4,2.9,24.3,25.2,3.1,5.73,1.99,3.5,28.5
2015-08-21 00:05:00,0.0,1.94193,0.00063,384.398,0.184,0.9963,0.0091,140.002,45.000,31054.15807,1.96153,389.148,34.625,45.068,45.000,0.00,0.10,-272.73,-272.80,-15,498,-931,24.6,24.6,3.1,24.3,25.7,3.4,5.73,1.85,3.5,28.5
2015-08-21 00:06:00,0.0,1.94253,0.00053,384.433,0.055,1.0035,0.0073,139.998,45.000,31052.91031,1.96237,389.225,34.621,45.068,45.000,0.00,0.10,-272.74,-272.80,-15,498,-931,24.6,24.8,3.2,24.3,25.8,3.4,5.73,1.80,3.5,28.5
2015-08-21 00:07:00,0.0,1.94132,0.00071,384.501,0.080,1.0111,0.0050,139.999,45.000,31054.93322,1.96125,389.331,34.624,45.068,45.000,0.00,0.10,-272.74,-272.80,-15,498,-931,24.6,25.0,3.3,24.3,26.1,3.6,5.73,1.89,3.5,28.5
2015-08-21 00:08:00,0.0,1.94308,0.00052,384.576,0.029,1.0015,0.0038,139.999,45.000,31055.61720,1.96283,389.361,34.625,45.068,45.000,0.00,0.10,-272.74,-272.80,-15,498,-931,24.7,24.7,3.2,24.3,25.9,3.5,5.73,2.02,3.5,28.5
2015-08-21 00:09:00,0.0,1.94359,0.00052,384.525,0.048,1.0043,0.0043,139.999,45.000,31055.63684,1.96339,389.323,34.625,45.068,45.000,0.00,0.10,-272.73,-272.80,-14,498,-931,24.7,24.8,3.2,24.3,25.9,3.5,5.73,2.04,3.5,28.6
2015-08-21 00:10:00,0.0,1.94468,0.00017,384.468,0.054,0.9998,0.0054,139.997,45.000,31055.33508,1.96443,389.242,34.629,45.068,45.000,0.00,0.10,-272.74,-272.81,-14,498,-931,24.7,24.7,3.1,24.3,25.8,3.4,5.73,1.92,3.5,28.6
2015-08-21 00:11:00,0.0,1.94438,0.00038,384.507,0.088,0.9957,0.0055,139.998,45.000,31054.59073,1.96407,389.258,34.639,45.068,45.000,0.00,0.10,-272.74,-272.80,-14,498,-931,24.7,24.5,3.0,24.3,25.7,3.4,5.73,1.80,3.5,28.5
2015-08-21 00:12:00,0.0,1.94440,0.00037,384.579,0.055,0.9921,0.0033,140.000,45.000,31054.40767,1.96399,389.318,34.632,45.068,45.000,0.00,0.10,-272.74,-272.79,-14,498,-931,24.7,24.5,3.0,24.3,25.5,3.3,5.73,1.83,3.5,28.5
2015-08-21 00:13:00,0.0,1.94475,0.00051,384.451,0.048,0.9992,0.0036,140.001,45.000,31056.51817,1.96447,389.222,34.626,45.068,45.000,0.00,0.10,-272.74,-272.79,-15,498,-931,24.7,24.7,3.1,24.3,25.7,3.4,5.73,1.97,3.5,28.5
2015-08-21 00:14:00,0.0,1.94559,0.00055,384.471,0.075,1.0015,0.0019,139.999,45.000,31055.64612,1.96535,389.254,34.619,45.068,45.000,0.00,0.10,-272.74,-272.80,-15,498,-931,24.7,24.7,3.1,24.3,25.8,3.5,5.73,2.05,3.5,28.5
2015-08-21 00:15:00,0.0,1.94549,0.00043,384.263,0.083,1.0102,0.0044,140.000,45.000,31056.15229,1.96547,389.088,34.621,45.068,45.000,0.00,0.10,-272.74,-272.80,-15,498,-931,24.7,25.0,3.3,24.3,26.0,3.5,5.73,1.99,3.5,28.4
2015-08-21 00:16:00,0.0,1.94548,0.00043,384.225,0.089,1.0160,0.0050,139.997,45.000,31056.22884,1.96559,389.075,34.625,45.068,45.000,0.00,0.10,-272.73,-272.80,-15,498,-931,24.7,25.0,3.3,24.3,26.2,3.7,5.73,1.86,3.5,28.5
2015-08-21 00:17:00,0.0,1.94585,0.00036,384.301,0.063,1.0066,0.0039,139.997,45.000,31054.88863,1.96572,389.107,34.635,45.068,45.000,0.00,0.10,-272.73,-272.80,-14,498,-931,24.7,24.8,3.2,24.3,26.0,3.6,5.73,1.80,3.5,28.5
2015-08-21 00:18:00,0.0,1.94500,0.00048,384.361,0.177,0.9988,0.0137,139.999,45.000,31056.75658,1.96479,389.128,34.671,45.068,45.000,0.00,0.10,-272.74,-272.80,-14,498,-931,24.7,24.5,3.1,24.3,25.8,3.5,5.73,1.87,3.5,28.5
2015-08-21 00:19:00,0.0,1.94466,0.00050,384.474,0.055,0.9885,0.0053,139.998,45.000,31056.03632,1.96420,389.192,34.668,45.068,45.000,0.00,0.10,-272.74,-272.79,-14,498,-931,24.7,24.4,2.9,24.3,25.4,3.2,5.73,2.02,3.5,28.5
2015-08-21 00:20:00,0.0,1.94541,0.00047,384.601,0.051,0.9853,0.0044,139.998,45.000,31056.62969,1.96483,389.304,34.633,45.067,45.000,0.00,0.10,-272.74,-272.80,-14,498,-931,24.7,24.3,2.9,24.3,25.4,3.2,5.73,2.05,3.5,28.5
2015-08-21 00:21:00,0.0,1.94576,0.00043,384.371,0.073,0.9983,0.0043,139.999,45.000,31057.20684,1.96552,389.139,34.625,45.068,45.000,0.00,0.10,-272.73,-272.81,-14,498,-931,24.7,24.6,3.1,24.3,25.6,3.3,5.73,1.94,3.5,28.5
2015-08-21 00:22:00,0.0,1.94561,0.00027,384.378,0.047,1.0007,0.0033,139.998,45.000,31055.56521,1.96537,389.154,34.625,45.068,45.000,0.00,0.10,-272.73,-272.80,-15,498,-931,24.7,24.7,3.1,24.3,25.8,3.4,5.73,1.82,3.5,28.6
2015-08-21 00:23:00,0.0,1.94566,0.00044,384.295,0.059,1.0061,0.0034,140.000,45.000,31056.66702,1.96554,389.099,34.625,45.068,45.000,0.00,0.10,-272.74,-272.80,-15,498,-931,24.7,24.8,3.2,24.3,25.9,3.5,5.73,1.82,3.5,28.5
2015-08-21 00:24:00,0.0,1.94582,0.00052,384.344,0.097,1.0021,0.0043,139.999,45.000,31056.43533,1.96566,389.130,34.625,45.068,45.000,0.00,0.10,-272.74,-272.80,-15,498,-931,24.7,24.7,3.2,24.3,25.8,3.5,5.73,1.93,3.5,28.5
2015-08-21 00:25:00,0.0,1.94624,0.00058,384.267,0.046,1.0071,0.0033,139.998,45.000,31056.69259,1.96611,389.073,34.622,45.068,45.000,0.00,0.10,-272.74,-272.79,-14,498,-931,24.7,24.8,3.2,24.3,25.9,3.6,5.73,2.05,3.5,28.6
2015-08-21 00:26:00,0.0,1.94736,0.00070,384.085,0.129,1.0122,0.0051,139.999,45.000,31055.81835,1.96737,388.919,34.586,45.068,45.000,0.00,0.10,-272.74,-272.80,-14,498,-931,24.7,25.0,3.3,24.3,26.0,3.6,5.73,2.02,3.5,28.5
2015-08-21 00:27:00,0.0,1.94706,0.00062,384.205,0.146,1.0082,0.0069,139.999,45.000,31056.37332,1.96701,389.014,34.597,45.068,45.000,0.00,0.10,-272.74,-272.80,-14,498,-931,24.7,24.8,3.2,24.3,26.0,3.6,5.73,1.89,3.5,28.5
2015-08-21 00:28:00,0.0,1.94731,0.00042,384.123,0.072,1.0167,0.0050,139.998,45.000,31053.92196,1.96746,388.977,34.581,45.068,45.000,0.00,0.10,-272.73,-272.80,-14,498,-931,24.7,25.1,3.4,24.3,26.1,3.7,5.73,1.80,3.5,28.6
2015-08-21 00:29:00,0.0,1.94646,0.00045,384.199,0.177,1.0181,0.0083,139.999,45.000,31056.33578,1.96666,389.055,34.593,45.068,45.000,0.00,0.10,-272.73,-272.79,-14,498,-931,24.7,25.0,3.3,24.3,26.2,3.7,5.73,1.85,3.5,28.6
2015-08-21 00:30:00,0.0,1.94659,0.00060,384.422,0.078,0.9948,0.0067,139.998,45.000,31055.25002,1.96624,389.174,34.620,45.068,45.000,0.00,0.10,-272.74,-272.80,-15,498,-931,24.7,24.5,3.0,24.3,25.7,3.4,5.73,1.99,3.5,28.5
2015-08-21 00:31:00,0.0,1.94655,0.00071,383.978,0.222,1.0232,0.0087,139.999,45.000,31055.44060,1.96680,388.861,34.625,45.068,45.000,0.00,0.10,-272.74,-272.80,-15,498,-931,24.7,25.2,3.4,24.3,26.2,3.7,5.73,2.05,3.6,28.6
2015-08-21 00:32:00,0.0,1.94731,0.00047,384.444,0.100,0.9902,0.0068,139.997,45.000,31055.78707,1.96689,389.174,34.643,45.068,45.000,0.00,0.10,-272.73,-272.79,-15,498,-931,24.7,24.4,3.0,24.3,25.7,3.4,5.73,1.98,3.5,28.6
2015-08-21 00:33:00,0.0,1.94724,0.00045,384.295,0.123,1.0030,0.0076,139.999,45.000,31056.13167,1.96708,389.079,34.639,45.068,45.000,0.00,0.10,-272.73,-272.80,-15,498,-931,24.7,24.7,3.1,24.3,25.7,3.4,5.73,1.83,3.5,28.5
2015-08-21 00:34:00,0.0,1.94696,0.00047,384.327,0.053,1.0066,0.0028,140.000,45.000,31056.21172,1.96686,389.132,34.626,45.067,45.000,0.00,0.10,-272.74,-272.81,-14,498,-931,24.7,24.8,3.2,24.3,25.9,3.5,5.73,1.80,3.5,28.5
2015-08-21 00:35:00,0.0,1.94638,0.00055,384.224,0.136,1.0108,0.0084,139.998,45.000,31058.22616,1.96646,389.052,34.626,45.067,45.000,0.00,0.10,-272.73,-272.80,-14,498,-931,24.7,24.9,3.3,24.3,26.0,3.6,5.73,1.90,3.6,28.5
2015-08-21 00:36:00,0.0,1.94571,0.00042,384.422,0.141,0.9959,0.0107,139.998,45.000,31057.45121,1.96540,389.173,34.644,45.068,45.000,0.00,0.10,-272.74,-272.79,-14,498,-931,24.7,24.4,3.0,24.3,25.7,3.4,5.73,2.02,3.6,28.5
2015-08-21 00:37:00,0.0,1.94562,0.00036,384.605,0.074,0.9862,0.0069,139.999,45.000,31059.30572,1.96510,389.312,34.665,45.068,45.000,0.00,0.10,-272.74,-272.80,-14,498,-931,24.7,24.3,2.9,24.3,25.3,3.2,5.73,2.04,3.6,28.6
2015-08-21 00:38:00,0.0,1.94561,0.00049,384.523,0.077,0.9916,0.0042,139.999,45.000,31059.12143,1.96524,389.256,34.636,45.067,45.000,0.00,0.10,-272.74,-272.80,-14,498,-931,24.7,24.4,3.0,24.3,25.5,3.3,5.73,1.93,3.6,28.5
2015-08-21 00:39:00,0.0,1.94554,0.00074,384.511,0.062,0.9964,0.0047,139.999,45.000,31058.88028,1.96520,389.272,34.626,45.068,45.000,0.00,0.10,-272.74,-272.79,-15,498,-932,24.7,24.5,3.1,24.3,25.5,3.3,5.73,1.81,3.6,28.6
2015-08-21 00:40:00,0.0,1.94669,0.00098,384.366,0.093,1.0079,0.0051,139.997,45.000,31057.15634,1.96666,389.177,34.632,45.068,45.000,0.00,0.10,-272.74,-272.80,-15,498,-931,24.7,24.8,3.2,24.3,25.8,3.5,5.73,1.81,3.6,28.6
2015-08-21 00:41:00,0.0,1.94334,0.00064,384.725,0.095,0.9864,0.0054,139.998,45.000,31055.37674,1.96292,389.434,34.627,45.068,45.000,0.00,0.10,-272.74,-272.80,-15,498,-931,24.7,24.2,2.9,24.3,25.4,3.3,5.73,1.94,3.6,28.6
2015-08-21 00:42:00,0.0,1.94217,0.00072,384.795,0.047,0.9784,0.0094,140.001,45.000,31055.86050,1.96149,389.468,34.643,45.068,45.000,0.00,0.10,-272.74,-272.80,-15,498,-931,24.7,24.0,2.8,24.3,25.2,3.1,5.73,2.04,3.6,28.5
2015-08-21 00:43:00,0.0,1.94231,0.00038,384.743,0.078,0.9785,0.0073,139.998,45.000,31057.30391,1.96156,389.415,34.683,45.068,45.000,0.00,0.10,-272.74,-272.80,-14,498,-932,24.7,24.1,2.8,24.3,25.0,3.0,5.73,2.01,3.6,28.5
2015-08-21 00:44:00,0.0,1.94254,0.00057,384.588,0.074,0.9836,0.0085,139.998,45.000,31057.89609,1.96199,389.287,34.681,45.068,45.000,0.00,0.10,-272.74,-272.80,-14,498,-932,24.7,24.2,2.9,24.3,25.3,3.2,5.73,1.88,3.6,28.5
2015-08-21 00:45:00,0.0,1.94242,0.00042,384.590,0.095,0.9772,0.0048,140.000,45.000,31058.11258,1.96169,389.253,34.680,45.068,45.000,0.00,0.10,-272.73,-272.80,-14,498,-931,24.7,24.0,2.8,24.3,25.1,3.1,5.73,1.79,3.6,28.6
2015-08-21 00:46:00,0.0,1.94173,0.00055,384.657,0.095,0.9723,0.0073,139.998,45.000,31057.70127,1.96092,389.298,34.686,45.067,45.000,0.00,0.10,-272.74,-272.80,-14,498,-932,24.7,23.8,2.7,24.3,24.9,3.0,5.73,1.85,3.6,28.6
2015-08-21 00:47:00,0.0,1.94086,0.00040,384.833,0.092,0.9540,0.0073,140.001,45.000,31058.10818,1.95969,389.385,34.690,45.068,45.000,0.00,0.10,-272.74,-272.80,-15,498,-932,24.7,23.4,2.4,24.4,24.6,2.8,5.73,2.00,3.6,28.5
2015-08-21 00:48:00,0.0,1.94126,0.00041,384.856,0.107,0.9473,0.0087,139.999,45.000,31057.42818,1.95989,389.377,34.688,45.068,45.000,0.00,0.10,-272.73,-272.80,-15,498,-932,24.7,23.3,2.4,24.4,24.2,2.6,5.73,2.05,3.6,28.6
2015-08-21 00:49:00,0.0,1.94103,0.00041,384.709,0.073,0.9630,0.0056,140.001,45.000,31060.81804,1.95999,389.303,34.688,45.068,45.000,0.00,0.10,-272.73,-272.80,-15,498,-932,24.7,23.6,2.6,24.4,24.6,2.9,5.73,1.97,3.6,28.6
2015-08-21 00:50:00,0.0,1.94139,0.00054,384.493,0.151,0.9714,0.0075,139.998,45.000,31060.60720,1.96051,389.132,34.686,45.068,45.000,0.00,0.10,-272.73,-272.80,-15,498,-932,24.7,23.9,2.7,24.3,24.8,2.9,5.73,1.83,3.6,28.6
2015-08-21 00:51:00,0.0,1.94099,0.00051,384.563,0.157,0.9650,0.0075,140.000,45.000,31060.67210,1.96001,389.163,34.680,45.068,45.000,0.00,0.10,-272.74,-272.80,-14,498,-932,24.7,23.7,2.6,24.3,24.8,2.9,5.73,1.80,3.6,28.6
2015-08-21 00:52:00,0.0,1.94110,0.00050,384.452,0.096,0.9779,0.0073,139.999,45.000,31060.69706,1.96036,389.118,34.658,45.068,45.000,0.00,0.10,-272.74,-272.80,-14,499,-932,24.7,24.0,2.8,24.4,24.9,3.0,5.73,1.90,3.6,28.6
2015-08-21 00:53:00,0.0,1.94230,0.00063,384.388,0.056,0.9837,0.0037,139.998,45.000,31060.28148,1.96167,389.083,34.658,45.068,45.000,0.00,0.10,-272.74,-272.79,-14,498,-932,24.7,24.2,2.9,24.4,25.2,3.1,5.73,2.03,3.7,28.5
2015-08-21 00:54:00,0.0,1.94257,0.00050,384.470,0.114,0.9849,0.0089,139.998,45.000,31060.58062,1.96199,389.169,34.670,45.068,45.000,0.00,0.10,-272.74,-272.80,-14,498,-932,24.7,24.2,2.9,24.4,25.2,3.2,5.73,2.04,3.6,28.6
2015-08-21 00:55:00,0.0,1.94233,0.00062,384.508,0.073,0.9819,0.0070,140.000,45.000,31060.80555,1.96172,389.195,34.645,45.068,45.000,0.00,0.10,-272.73,-272.80,-15,498,-932,24.7,24.1,2.9,24.3,25.2,3.2,5.73,1.91,3.7,28.6
2015-08-21 00:56:00,0.0,1.94252,0.00051,384.653,0.115,0.9720,0.0097,139.999,45.000,31059.93888,1.96168,389.289,34.679,45.068,45.000,0.00,0.10,-272.73,-272.79,-15,498,-932,24.7,23.8,2.7,24.4,25.0,3.0,5.73,1.81,3.7,28.5
2015-08-21 00:57:00,0.0,1.94299,0.00035,384.658,0.050,0.9737,0.0041,139.999,45.000,31060.86137,1.96220,389.305,34.686,45.068,45.000,0.00,0.10,-272.74,-272.80,-15,498,-932,24.7,23.9,2.7,24.3,24.9,3.0,5.73,1.83,3.7,28.6
2015-08-21 00:58:00,0.0,1.94310,0.00050,384.620,0.112,0.9814,0.0055,140.000,45.000,31059.55330,1.96244,389.304,34.687,45.068,45.000,0.00,0.10,-272.74,-272.80,-15,499,-932,24.7,24.1,2.8,24.4,25.1,3.1,5.73,1.95,3.7,28.6
2015-08-21 00:59:00,0.0,1.94335,0.00032,384.717,0.087,0.9778,0.0072,139.998,45.000,31059.60699,1.96265,389.387,34.684,45.068,45.000,0.00,0.10,-272.73,-272.80,-15,499,-932,24.7,24.0,2.8,24.4,25.0,3.1,5.73,2.05,3.7,28.6
2015-08-21 01:00:00,0.0,1.94338,0.00027,384.683,0.084,0.9839,0.0044,139.998,45.000,31061.09147,1.96281,389.380,34.688,45.068,45.000,0.00,0.10,-272.74,-272.80,-14,499,-932,24.7,24.1,2.9,24.4,25.1,3.2,5.73,2.01,3.7,28.6
2015-08-21 01:01:00,0.0,1.94380,0.00047,384.566,0.117,0.9907,0.0082,140.000,45.000,31063.35827,1.96332,389.301,34.688,45.068,45.000,0.00,0.10,-272.73,-272.81,-14,498,-932,24.7,24.4,3.0,24.4,25.3,3.2,5.73,1.88,3.7,28.6
2015-08-21 01:02:00,0.0,1.94405,0.00049,384.351,0.095,1.0151,0.0062,139.997,45.000,31062.14827,1.96409,389.196,34.686,45.068,45.000,0.00,0.10,-272.73,-272.80,-14,499,-932,24.7,24.9,3.3,24.4,25.9,3.6,5.73,1.79,3.7,28.6
2015-08-21 01:03:00,0.0,1.94359,0.00049,384.450,0.115,1.0131,0.0074,139.999,45.000,31062.74455,1.96367,389.289,34.675,45.068,45.000,0.00,0.10,-272.74,-272.80,-14,498,-932,24.7,24.9,3.3,24.4,26.0,3.6,5.73,1.86,3.7,28.5
2015-08-21 01:04:00,0.0,1.94429,0.00067,384.600,0.115,1.0040,0.0112,139.996,45.000,31060.50171,1.96404,389.395,34.684,45.068,45.000,0.00,0.10,-272.74,-272.80,-15,498,-932,24.7,24.6,3.1,24.4,25.8,3.5,5.73,1.99,3.7,28.6
2015-08-21 01:05:00,0.0,1.94334,0.00044,384.682,0.098,1.0024,0.0067,140.000,45.000,31062.39744,1.96321,389.470,34.688,45.068,45.000,0.00,0.10,-272.74,-272.80,-15,499,-932,24.7,24.6,3.1,24.4,25.6,3.4,5.73,2.05,3.7,28.6
2015-08-21 01:06:00,0.0,1.94251,0.00040,384.750,0.071,1.0071,0.0043,139.999,45.000,31062.88732,1.96239,389.563,34.689,45.068,45.000,0.00,0.10,-272.73,-272.80,-15,499,-932,24.8,24.7,3.2,24.4,25.8,3.5,5.73,1.97,3.7,28.6
2015-08-21 01:07:00,0.0,1.94252,0.00043,384.696,0.051,1.0110,0.0034,139.999,45.000,31061.98309,1.96247,389.526,34.689,45.068,45.000,0.00,0.10,-272.74,-272.80,-15,499,-932,24.8,24.8,3.3,24.4,25.9,3.6,5.73,1.84,3.7,28.6
2015-08-21 01:08:00,0.0,1.94256,0.00033,384.802,0.054,1.0011,0.0044,140.000,45.000,31063.56298,1.96232,389.587,34.702,45.068,45.000,0.00,0.10,-272.74,-272.80,-15,499,-932,24.8,24.5,3.1,24.4,25.7,3.5,5.73,1.80,3.7,28.6
2015-08-21 01:09:00,0.0,1.94221,0.00040,384.866,0.093,1.0029,0.0035,140.000,45.000,31063.17805,1.96201,389.658,34.693,45.068,45.000,0.00,0.10,-272.74,-272.79,-14,499,-932,24.8,24.6,3.2,24.4,25.7,3.5,5.73,1.89,3.7,28.6
2015-08-21 01:10:00,0.0,1.94120,0.00055,384.692,0.140,1.0190,0.0097,139.999,45.000,31063.64580,1.96135,389.563,34.700,45.068,45.000,0.00,0.10,-272.74,-272.80,-14,499,-932,24.8,25.0,3.4,24.4,25.9,3.6,5.73,2.01,3.8,28.6
2015-08-21 01:11:00,0.0,1.94140,0.00040,384.804,0.059,1.0061,0.0025,140.000,45.000,31063.49895,1.96123,389.616,34.692,45.068,45.000,0.00,0.10,-272.74,-272.80,-14,499,-932,24.8,24.6,3.2,24.4,25.8,3.5,5.73,2.04,3.8,28.6
2015-08-21 01:12:00,0.0,1.94210,0.00058,384.765,0.044,1.0056,0.0026,139.999,45.000,31061.08737,1.96193,389.572,34.685,45.068,45.000,0.00,0.10,-272.73,-272.80,-14,499,-932,24.8,24.6,3.2,24.4,25.7,3.5,5.73,1.95,3.8,28.6
2015-08-21 01:13:00,0.0,1.94269,0.00052,384.889,0.064,0.9894,0.0066,139.998,45.000,31063.76335,1.96218,389.618,34.683,45.068,45.000,0.00,0.10,-272.73,-272.80,-15,499,-932,24.8,24.2,2.9,24.4,25.4,3.3,5.73,1.83,3.8,28.6
2015-08-21 01:14:00,0.0,1.94299,0.00047,384.754,0.091,1.0034,0.0094,139.999,45.000,31063.16782,1.96284,389.549,34.684,45.068,45.000,0.00,0.10,-272.73,-272.80,-15,499,-932,24.8,24.6,3.2,24.4,25.5,3.4,5.73,1.81,3.8,28.6
2015-08-21 01:15:00,0.0,1.94293,0.00039,384.830,0.078,1.0023,0.0060,140.001,45.000,31064.73844,1.96271,389.620,34.684,45.068,45.000,0.00,0.10,-272.74,-272.80,-15,499,-932,24.8,24.5,3.2,24.4,25.7,3.5,5.73,1.90,3.8,28.6
2015-08-21 01:16:00,0.0,1.94280,0.00038,384.895,0.093,0.9977,0.0048,139.999,45.000,31063.65604,1.96249,389.661,34.673,45.068,45.000,0.00,0.10,-272.74,-272.80,-15,499,-932,24.8,24.4,3.1,24.4,25.5,3.4,5.73,2.02,3.8,28.6
2015-08-21 01:17:00,0.0,1.94227,0.00044,384.914,0.048,0.9966,0.0044,139.998,45.000,31065.06124,1.96196,389.682,34.644,45.068,45.000,0.00,0.10,-272.74,-272.80,-15,499,-932,24.8,24.4,3.1,24.4,25.4,3.4,5.73,2.04,3.8,28.6
2015-08-21 01:18:00,0.0,1.94258,0.00050,384.732,0.080,0.9936,0.0043,139.998,45.000,31064.67364,1.96220,389.482,34.628,45.068,45.000,0.00,0.10,-272.74,-272.80,-14,499,-932,24.8,24.3,3.0,24.5,25.4,3.3,5.73,1.94,3.8,28.6
2015-08-21 01:19:00,0.0,1.94242,0.00044,384.648,0.090,0.9976,0.0054,139.998,45.000,31063.05295,1.96210,389.412,34.639,45.068,45.000,0.00,0.10,-272.73,-272.80,-14,499,-932,24.8,24.4,3.1,24.5,25.4,3.4,5.73,1.81,3.8,28.6
2015-08-21 01:20:00,0.0,1.94179,0.00046,384.753,0.139,0.9906,0.0100,140.002,45.000,31065.18510,1.96134,389.483,34.627,45.068,45.000,0.00,0.10,-272.73,-272.80,-14,499,-932,24.8,24.2,3.0,24.4,25.4,3.3,5.73,1.82,3.8,28.6
2015-08-21 01:21:00,0.0,1.94163,0.00034,384.832,0.152,0.9888,0.0092,139.996,45.000,31063.03808,1.96114,389.555,34.626,45.068,45.000,0.00,0.10,-272.75,-272.79,-15,499,-932,24.8,24.1,2.9,24.5,25.2,3.3,5.73,1.92,3.8,28.6
2015-08-21 01:22:00,0.0,1.94213,0.00037,384.972,0.085,0.9784,0.0058,139.999,45.000,31065.06610,1.96141,389.650,34.625,45.068,45.000,0.00,0.10,-272.74,-272.80,-15,499,-932,24.8,24.0,2.9,24.5,24.9,3.1,5.73,2.02,3.8,28.6
2015-08-21 01:23:00,0.0,1.94181,0.00043,384.727,0.149,0.9980,0.0070,139.999,45.000,31065.50166,1.96152,389.492,34.629,45.068,45.000,0.00,0.10,-272.73,-272.79,-15,499,-932,24.8,24.4,3.1,24.4,25.4,3.3,5.73,2.03,3.8,28.6
2015-08-21 01:24:00,0.0,1.94154,0.00041,384.983,0.106,0.9830,0.0063,139.999,45.000,31067.11446,1.96091,389.679,34.644,45.068,45.000,0.00,0.10,-272.74,-272.80,-15,499,-932,24.8,24.0,2.9,24.4,25.1,3.2,5.73,1.93,3.8,28.6
2015-08-21 01:25:00,0.0,1.94169,0.00051,384.865,0.099,0.9908,0.0063,139.999,45.000,31066.30033,1.96121,389.604,34.632,45.068,45.000,0.00,0.10,-272.73,-272.80,-15,499,-932,24.8,24.2,3.0,24.5,25.2,3.3,5.73,1.82,3.8,28.6
2015-08-21 01:26:00,0.0,1.94133,0.00052,384.832,0.152,0.9768,0.0155,139.999,45.000,31066.65373,1.96066,389.497,34.649,45.068,45.000,0.00,0.10,-272.73,-272.79,-15,499,-932,24.8,23.8,2.8,24.5,25.1,3.2,5.73,1.81,3.8,28.6
2015-08-21 01:27:00,0.0,1.94127,0.00054,384.702,0.115,0.9821,0.0079,139.997,45.000,31065.85336,1.96063,389.396,34.674,45.067,45.000,0.00,0.10,-272.74,-272.80,-14,499,-932,24.8,24.0,2.9,24.4,24.9,3.1,5.73,1.93,3.8,28.6
2015-08-21 01:28:00,0.0,1.94063,0.00057,384.913,0.189,0.9788,0.0096,140.000,45.000,31066.60697,1.95991,389.584,34.688,45.067,44.999,0.00,0.10,-272.74,-272.80,-14,499,-932,24.8,23.9,2.8,24.4,25.0,3.1,5.73,2.04,3.8,28.6
2015-08-21 01:29:00,0.0,1.94041,0.00054,385.039,0.101,0.9694,0.0071,139.998,45.000,31066.47760,1.95954,389.670,34.688,45.067,45.000,0.00,0.10,-272.73,-272.80,-14,499,-932,24.8,23.7,2.7,24.5,24.7,3.0,5.73,2.02,3.8,28.6
2015-08-21 01:30:00,0.0,1.94051,0.00057,384.987,0.144,0.9898,0.0064,139.999,45.000,31068.97645,1.96001,389.713,34.688,45.067,45.000,0.00,0.10,-272.73,-272.80,-15,499,-932,24.8,24.2,3.0,24.4,25.1,3.2,5.73,1.91,3.8,28.6
2015-08-21 01:31:00,0.0,1.94088,0.00060,384.911,0.094,0.9995,0.0083,139.996,45.000,31066.85954,1.96054,389.692,34.699,45.067,45.000,0.00,0.10,-272.74,-272.80,-15,499,-932,24.8,24.5,3.1,24.5,25.4,3.4,5.73,1.81,3.8,28.6
2015-08-21 01:32:00,0.0,1.94070,0.00059,384.779,0.090,1.0028,0.0046,140.001,45.000,31068.48747,1.96050,389.569,34.740,45.067,45.000,0.00,0.10,-272.74,-272.80,-15,499,-932,24.8,24.5,3.2,24.5,25.6,3.5,5.73,1.82,3.9,28.6
2015-08-21 01:33:00,0.0,1.94097,0.00040,385.018,0.094,0.9933,0.0043,140.001,45.000,31068.60099,1.96055,389.767,34.749,45.067,45.000,0.00,0.10,-272.74,-272.79,-15,499,-932,24.8,24.3,3.0,24.4,25.3,3.3,5.73,1.95,3.8,28.6
2015-08-21 01:34:00,0.0,1.94109,0.00045,384.999,0.055,0.9914,0.0031,139.999,45.000,31069.82099,1.96063,389.740,34.750,45.067,45.000,0.00,0.10,-272.74,-272.80,-15,499,-932,24.8,24.2,3.0,24.5,25.3,3.3,5.73,2.05,3.9,28.6
2015-08-21 01:35:00,0.0,1.94117,0.00033,384.910,0.082,1.0017,0.0067,140.000,45.000,31069.37188,1.96091,389.698,34.747,45.067,45.000,0.00,0.10,-272.74,-272.80,-15,499,-932,24.8,24.5,3.2,24.5,25.4,3.4,5.73,2.01,3.9,28.6
2015-08-21 01:36:00,0.0,1.94203,0.00056,385.008,0.153,0.9980,0.0105,139.999,45.000,31069.28708,1.96170,389.777,34.701,45.068,45.000,0.00,0.10,-272.73,-272.79,-14,499,-932,24.8,24.3,3.1,24.5,25.5,3.4,5.73,1.89,3.8,28.6
2015-08-21 01:37:00,0.0,1.94243,0.00041,385.109,0.132,0.9949,0.0102,139.998,45.000,31068.93359,1.96208,389.871,34.688,45.068,45.000,0.00,0.10,-272.73,-272.80,-14,499,-932,24.8,24.4,3.1,24.5,25.3,3.3,5.73,1.80,3.8,28.6
2015-08-21 01:38:00,0.0,1.94276,0.00049,384.868,0.077,1.0089,0.0053,139.999,45.000,31070.80751,1.96268,389.694,34.688,45.068,45.000,0.00,0.10,-272.74,-272.80,-14,499,-932,24.8,24.6,3.3,24.5,25.7,3.5,5.73,1.84,3.9,28.6
2015-08-21 01:39:00,0.0,1.94236,0.00035,385.076,0.098,0.9977,0.0083,140.000,45.000,31072.25034,1.96205,389.843,34.691,45.068,45.001,0.00,0.10,-272.74,-272.79,-15,499,-932,24.8,24.3,3.1,24.5,25.5,3.4,5.73,1.97,3.9,28.7
2015-08-21 01:40:00,0.0,1.94266,0.00035,385.049,0.067,0.9991,0.0074,140.001,45.000,31071.72075,1.96239,389.828,34.689,45.068,45.001,0.00,0.10,-272.73,-272.80,-15,499,-932,24.8,24.4,3.1,24.5,25.3,3.3,5.73,2.05,3.9,28.6
2015-08-21 01:41:00,0.0,1.94234,0.00064,384.892,0.063,1.0121,0.0042,139.998,45.000,31071.27848,1.96230,389.733,34.689,45.068,45.000,0.00,0.10,-272.74,-272.81,-15,499,-932,24.9,24.7,3.3,24.5,25.7,3.6,5.73,1.99,3.9,28.6
2015-08-21 01:42:00,0.0,1.94185,0.00040,384.907,0.071,1.0125,0.0032,139.997,45.000,31070.60008,1.96188,389.749,34.729,45.068,45.000,0.00,0.10,-272.73,-272.81,-15,499,-932,24.9,24.8,3.3,24.5,25.8,3.6,5.73,1.86,3.9,28.6
2015-08-21 01:43:00,0.0,1.94182,0.00044,385.052,0.214,1.0056,0.0126,139.998,45.000,31073.17361,1.96167,389.856,34.749,45.068,45.000,0.00,0.10,-272.73,-272.80,-15,499,-932,24.8,24.5,3.1,24.5,25.7,3.6,5.73,1.80,3.9,28.6
2015-08-21 01:44:00,0.0,1.94191,0.00037,385.131,0.163,1.0069,0.0071,139.999,45.000,31073.69322,1.96176,389.954,34.748,45.068,45.000,0.00,0.10,-272.73,-272.80,-15,499,-932,24.8,24.6,3.2,24.5,25.5,3.5,5.73,1.87,3.9,28.6
2015-08-21 01:45:00,0.0,1.94199,0.00038,384.885,0.090,1.0147,0.0072,140.000,45.000,31072.90123,1.96203,389.737,34.750,45.068,45.000,0.00,0.10,-272.74,-272.80,-14,499,-933,24.9,24.8,3.4,24.5,25.9,3.6,5.73,2.00,3.9,28.6
2015-08-21 01:46:00,0.0,1.94214,0.00048,384.837,0.126,1.0060,0.0136,140.000,45.000,31073.69173,1.96199,389.648,34.750,45.068,45.000,0.00,0.10,-272.74,-272.79,-14,499,-933,24.9,24.5,3.2,24.5,25.7,3.6,5.73,2.05,3.9,28.6